• In Hungary
  • List of Countries
  • For 7 days
  • Water Temperature
  • Satellite Maps
  • Weather Map
  • News
  • Weather Widgets
  • user-avatar
    Login

    Hourly Weather Germering

    Today, 25 November, Saturday

    Time Temperature Precipitation Wind Pressure Humidity
    00:00 +7°C° 0 mm 2 mps 713 mmHg 79%
    01:00 +6°C° 0 mm 2 mps 712 mmHg 80%
    02:00 +6°C° 0 mm 2 mps 712 mmHg 80%
    03:00 +6°C° 0 mm 2 mps 711 mmHg 81%
    04:00 +5°C° 0 mm 2 mps 711 mmHg 81%
    05:00 +5°C° 0 mm 2 mps 710 mmHg 80%
    06:00 +5°C° 0 mm 2 mps 709 mmHg 79%
    07:00 +5°C° 0 mm 2 mps 708 mmHg 78%
    08:00 +5°C° 0 mm 3 mps 708 mmHg 77%
    09:00 +5°C° 0 mm 3 mps 708 mmHg 75%
    10:00 +7°C° 0 mm 3 mps 708 mmHg 74%
    11:00 +6°C° 0.4 mm 4 mps 708 mmHg 78%
    12:00 +6°C° 0.4 mm 4 mps 708 mmHg 82%
    13:00 +6°C° 0.4 mm 5 mps 709 mmHg 85%
    14:00 +6°C° 0.5 mm 5 mps 709 mmHg 86%
    15:00 +5°C° 0.5 mm 5 mps 709 mmHg 87%
    16:00 +5°C° 0.5 mm 4 mps 710 mmHg 88%
    17:00 +5°C° 0.3 mm 4 mps 710 mmHg 87%
    18:00 +4°C° 0.3 mm 4 mps 711 mmHg 87%
    19:00 +4°C° 0.3 mm 3 mps 711 mmHg 87%
    20:00 +3°C° 0.3 mm 4 mps 712 mmHg 85%
    21:00 +2°C° 0.3 mm 5 mps 712 mmHg 84%
    22:00 +1°C° 0.3 mm 5 mps 713 mmHg 83%
    23:00 +1°C° 0.1 mm 6 mps 714 mmHg 83%

    Tomorrow, 26 November, Sunday

    Time Temperature Precipitation Wind Pressure Humidity
    00:00 -1°C° 0.1 mm 6 mps 714 mmHg 83%
    01:00 -1°C° 0.1 mm 6 mps 715 mmHg 83%
    02:00 -1°C° 0.2 mm 5 mps 715 mmHg 85%
    03:00 -1°C° 0.2 mm 4 mps 716 mmHg 86%
    04:00 0°C° 0.2 mm 3 mps 716 mmHg 87%
    05:00 0°C° 0.1 mm 3 mps 717 mmHg 88%
    06:00 -1°C° 0.1 mm 3 mps 717 mmHg 88%
    07:00 -1°C° 0.1 mm 3 mps 718 mmHg 88%
    08:00 -1°C° 0 mm 3 mps 719 mmHg 85%
    09:00 -1°C° 0 mm 4 mps 719 mmHg 81%
    10:00 -1°C° 0 mm 4 mps 719 mmHg 78%
    11:00 -1°C° 0 mm 4 mps 719 mmHg 75%
    12:00 0°C° 0 mm 4 mps 719 mmHg 71%
    13:00 0°C° 0 mm 4 mps 719 mmHg 68%
    14:00 0°C° 0.1 mm 4 mps 719 mmHg 71%
    15:00 +1°C° 0.1 mm 3 mps 720 mmHg 73%
    16:00 0°C° 0.1 mm 3 mps 720 mmHg 76%
    17:00 -1°C° 0 mm 3 mps 720 mmHg 79%
    18:00 -1°C° 0 mm 3 mps 721 mmHg 82%
    19:00 -2°C° 0 mm 3 mps 721 mmHg 85%
    20:00 -2°C° 0.1 mm 3 mps 721 mmHg 84%
    21:00 -2°C° 0.1 mm 3 mps 722 mmHg 84%
    22:00 -2°C° 0.1 mm 3 mps 722 mmHg 84%
    23:00 -2°C° 0.1 mm 3 mps 722 mmHg 85%

    Day after tomorrow, 27 November, Monday

    Time Temperature Precipitation Wind Pressure Humidity
    00:00 -2°C° 0.1 mm 3 mps 722 mmHg 85%
    01:00 -2°C° 0.1 mm 3 mps 722 mmHg 86%
    02:00 -2°C° 0 mm 3 mps 722 mmHg 86%
    03:00 -4°C° 0 mm 3 mps 722 mmHg 87%
    04:00 -4°C° 0 mm 3 mps 722 mmHg 87%
    05:00 -4°C° 0 mm 3 mps 722 mmHg 87%
    06:00 -4°C° 0 mm 3 mps 722 mmHg 86%
    07:00 -4°C° 0 mm 3 mps 722 mmHg 86%
    08:00 -2°C° 0 mm 3 mps 722 mmHg 82%
    09:00 -2°C° 0 mm 3 mps 722 mmHg 78%
    10:00 -1°C° 0 mm 3 mps 722 mmHg 74%
    11:00 0°C° 0 mm 3 mps 722 mmHg 71%
    12:00 +1°C° 0 mm 3 mps 721 mmHg 68%
    13:00 +2°C° 0 mm 3 mps 721 mmHg 65%
    14:00 +2°C° 0 mm 2 mps 721 mmHg 69%
    15:00 +1°C° 0 mm 2 mps 720 mmHg 73%
    16:00 -1°C° 0 mm 2 mps 720 mmHg 76%
    17:00 -2°C° 0 mm 2 mps 720 mmHg 78%
    18:00 -2°C° 0 mm 2 mps 720 mmHg 81%
    19:00 -3°C° 0 mm 2 mps 720 mmHg 83%
    20:00 -4°C° 0 mm 3 mps 719 mmHg 82%
    21:00 -4°C° 0 mm 3 mps 719 mmHg 80%
    22:00 -4°C° 0 mm 3 mps 719 mmHg 78%
    23:00 -4°C° 0 mm 3 mps 718 mmHg 75%

    28 November, Tuesday

    Time Temperature Precipitation Wind Pressure Humidity
    00:00 -4°C° 0 mm 3 mps 717 mmHg 73%
    01:00 -4°C° 0 mm 3 mps 717 mmHg 70%
    02:00 -2°C° 0 mm 3 mps 716 mmHg 67%
    03:00 -2°C° 0 mm 3 mps 716 mmHg 64%
    04:00 -1°C° 0 mm 3 mps 716 mmHg 62%
    05:00 -1°C° 0 mm 3 mps 715 mmHg 61%
    06:00 -1°C° 0 mm 3 mps 715 mmHg 61%
    07:00 -1°C° 0 mm 2 mps 714 mmHg 61%
    08:00 +1°C° 0 mm 2 mps 713 mmHg 58%
    09:00 +2°C° 0 mm 2 mps 713 mmHg 56%
    10:00 +3°C° 0 mm 2 mps 712 mmHg 54%
    11:00 +4°C° 0 mm 2 mps 711 mmHg 54%
    12:00 +5°C° 0 mm 2 mps 710 mmHg 54%
    13:00 +7°C° 0 mm 1 mps 709 mmHg 54%
    14:00 +6°C° 0.1 mm 1 mps 709 mmHg 59%
    15:00 +5°C° 0.1 mm 1 mps 708 mmHg 65%
    16:00 +4°C° 0.1 mm 1 mps 708 mmHg 70%
    17:00 +4°C° 0 mm 1 mps 708 mmHg 72%
    18:00 +3°C° 0 mm 1 mps 708 mmHg 73%
    19:00 +2°C° 0 mm 2 mps 708 mmHg 74%
    20:00 +2°C° 0 mm 2 mps 707 mmHg 75%
    21:00 +2°C° 0 mm 2 mps 707 mmHg 75%
    22:00 +1°C° 0 mm 2 mps 707 mmHg 75%
    23:00 +1°C° 0 mm 2 mps 707 mmHg 75%

    29 November, Wednesday

    Time Temperature Precipitation Wind Pressure Humidity
    00:00 +1°C° 0 mm 2 mps 707 mmHg 74%
    01:00 +1°C° 0 mm 2 mps 706 mmHg 74%
    02:00 +1°C° 0 mm 2 mps 706 mmHg 73%
    03:00 +1°C° 0 mm 2 mps 706 mmHg 73%
    04:00 +1°C° 0 mm 2 mps 706 mmHg 72%
    05:00 +1°C° 0.1 mm 2 mps 706 mmHg 73%
    06:00 +1°C° 0.1 mm 2 mps 705 mmHg 75%
    07:00 +1°C° 0.1 mm 2 mps 705 mmHg 76%
    08:00 +1°C° 0.2 mm 2 mps 705 mmHg 75%
    09:00 +2°C° 0.2 mm 2 mps 706 mmHg 75%
    10:00 +3°C° 0.2 mm 2 mps 706 mmHg 75%
    11:00 +3°C° 0.3 mm 2 mps 705 mmHg 76%
    12:00 +3°C° 0.3 mm 2 mps 705 mmHg 77%
    13:00 +4°C° 0.3 mm 2 mps 705 mmHg 78%
    14:00 +3°C° 0.3 mm 2 mps 705 mmHg 82%
    15:00 +3°C° 0.3 mm 2 mps 705 mmHg 86%
    16:00 +3°C° 0.3 mm 1 mps 705 mmHg 89%
    17:00 +3°C° 0.4 mm 1 mps 705 mmHg 90%
    18:00 +2°C° 0.4 mm 2 mps 705 mmHg 91%
    19:00 +1°C° 0.4 mm 2 mps 705 mmHg 92%
    20:00 +2°C° 0.4 mm 1 mps 705 mmHg 93%
    21:00 +2°C° 0.4 mm 1 mps 705 mmHg 93%
    22:00 +2°C° 0.4 mm 1 mps 705 mmHg 94%
    23:00 +2°C° 0.3 mm 1 mps 705 mmHg 94%

    30 November, Thursday

    Time Temperature Precipitation Wind Pressure Humidity
    00:00 +2°C° 0.3 mm 1 mps 705 mmHg 95%
    01:00 +2°C° 0.3 mm 1 mps 705 mmHg 95%
    02:00 +1°C° 0.2 mm 2 mps 704 mmHg 95%
    03:00 -1°C° 0.2 mm 2 mps 704 mmHg 96%
    04:00 -1°C° 0.2 mm 2 mps 704 mmHg 96%
    05:00 -1°C° 0.2 mm 2 mps 705 mmHg 95%
    06:00 -1°C° 0.2 mm 2 mps 705 mmHg 95%
    07:00 -1°C° 0.2 mm 3 mps 705 mmHg 95%
    08:00 -1°C° 0.4 mm 3 mps 705 mmHg 94%
    09:00 -1°C° 0.4 mm 3 mps 706 mmHg 93%
    10:00 -2°C° 0.4 mm 4 mps 706 mmHg 91%
    11:00 -2°C° 0.2 mm 4 mps 706 mmHg 89%
    12:00 -2°C° 0.2 mm 4 mps 706 mmHg 87%
    13:00 -1°C° 0.2 mm 4 mps 706 mmHg 85%
    14:00 -1°C° 0.1 mm 3 mps 706 mmHg 86%
    15:00 -1°C° 0.1 mm 3 mps 706 mmHg 87%
    16:00 -1°C° 0.1 mm 3 mps 707 mmHg 88%
    17:00 -2°C° 0 mm 3 mps 707 mmHg 89%
    18:00 -4°C° 0 mm 3 mps 707 mmHg 89%
    19:00 -4°C° 0 mm 3 mps 708 mmHg 90%
    20:00 -4°C° 0 mm 3 mps 708 mmHg 90%
    21:00 -5°C° 0 mm 4 mps 708 mmHg 90%
    22:00 -5°C° 0 mm 4 mps 708 mmHg 90%
    23:00 -5°C° 0.1 mm 4 mps 708 mmHg 89%
    Show more